TimeCET,TemperatureF,Dew PointF,Humidity,Sea Level PressureIn,VisibilityMPH,Wind Direction,Wind SpeedMPH,Gust SpeedMPH,PrecipitationIn,Events,Conditions,WindDirDegrees,DateUTC
12:00 AM,30.2,28.4,93,29.50,6.2,West,9.2,-,N/A,,Mostly Cloudy,260,2012-11-29 23:00:00
1:00 AM,28.4,28.4,100,29.50,6.2,West,8.1,-,N/A,,Mostly Cloudy,260,2012-11-30 00:00:00
2:00 AM,30.2,28.4,93,29.50,6.2,West,8.1,-,N/A,,Mostly Cloudy,260,2012-11-30 01:00:00
3:00 AM,30.2,28.4,93,29.50,6.2,West,9.2,-,N/A,,Mostly Cloudy,270,2012-11-30 02:00:00
4:00 AM,28.4,28.4,100,29.53,6.2,West,6.9,-,N/A,,Mostly Cloudy,260,2012-11-30 03:00:00
5:00 AM,28.4,26.6,93,29.53,6.2,WSW,5.8,-,N/A,,Mostly Cloudy,250,2012-11-30 04:00:00
6:00 AM,28.4,28.4,100,29.56,6.2,WSW,4.6,-,N/A,,Mostly Cloudy,240,2012-11-30 05:00:00
7:00 AM,28.4,28.4,100,29.56,6.2,WSW,6.9,-,N/A,,Mostly Cloudy,250,2012-11-30 06:00:00
7:30 AM,28.4,28.4,100,29.56,6.2,WSW,6.9,-,N/A,,Partly Cloudy,250,2012-11-30 06:30:00
8:00 AM,28.4,26.6,93,29.59,6.2,WSW,5.8,-,N/A,,Partly Cloudy,240,2012-11-30 07:00:00
8:30 AM,28.4,26.6,93,29.59,6.2,WSW,6.9,-,N/A,,Scattered Clouds,240,2012-11-30 07:30:00
9:00 AM,28.4,26.6,93,29.59,6.2,WSW,5.8,-,N/A,,Mostly Cloudy,240,2012-11-30 08:00:00
9:30 AM,28.4,28.4,100,29.62,6.2,WSW,6.9,-,N/A,,Scattered Clouds,240,2012-11-30 08:30:00
10:00 AM,30.2,28.4,93,29.62,6.2,WSW,5.8,-,N/A,,Partly Cloudy,240,2012-11-30 09:00:00
10:30 AM,30.2,28.4,93,29.65,6.2,WSW,6.9,-,N/A,,Mostly Cloudy,250,2012-11-30 09:30:00
11:00 AM,30.2,28.4,93,29.65,6.2,WSW,8.1,-,N/A,,Scattered Clouds,250,2012-11-30 10:00:00
11:30 AM,30.2,28.4,93,29.65,6.2,WSW,8.1,-,N/A,,Partly Cloudy,250,2012-11-30 10:30:00
11:49 AM,30.2,28.4,93,29.65,6.2,WSW,6.9,-,N/A,Snow,Light Snow,250,2012-11-30 10:49:00
12:00 PM,30.2,28.4,93,29.65,6.2,WSW,6.9,-,N/A,Snow,Light Snow,250,2012-11-30 11:00:00
12:30 PM,30.2,28.4,93,29.65,3.1,WSW,6.9,-,N/A,Snow,Light Snow,250,2012-11-30 11:30:00
12:42 PM,30.2,28.4,93,29.65,6.2,WSW,6.9,-,N/A,Snow,Light Snow,250,2012-11-30 11:42:00
1:00 PM,30.2,28.4,93,29.65,6.2,WSW,5.8,-,N/A,Snow,Light Snow,250,2012-11-30 12:00:00
1:30 PM,30.2,28.4,93,29.65,6.2,WSW,8.1,-,N/A,Snow,Light Snow,250,2012-11-30 12:30:00
2:00 PM,30.2,26.6,86,29.68,6.2,West,6.9,-,N/A,Snow,Light Snow,260,2012-11-30 13:00:00
2:30 PM,30.2,26.6,86,29.68,6.2,WSW,6.9,-,N/A,Snow,Light Snow,250,2012-11-30 13:30:00
3:00 PM,30.2,26.6,86,29.68,6.2,WSW,6.9,-,N/A,,Mostly Cloudy,250,2012-11-30 14:00:00
3:30 PM,28.4,28.4,100,29.68,6.2,WSW,6.9,-,N/A,Snow,Light Snow,250,2012-11-30 14:30:00
4:00 PM,28.4,28.4,100,29.71,6.2,WSW,4.6,-,N/A,Snow,Light Snow,240,2012-11-30 15:00:00
4:30 PM,28.4,26.6,93,29.71,6.2,WSW,5.8,-,N/A,Snow,Light Snow,250,2012-11-30 15:30:00
5:00 PM,28.4,28.4,100,29.71,6.2,WSW,5.8,-,N/A,Snow,Light Snow,240,2012-11-30 16:00:00
5:30 PM,28.4,28.4,100,29.74,6.2,WSW,5.8,-,N/A,Snow,Light Snow,250,2012-11-30 16:30:00
6:00 PM,28.4,28.4,100,29.74,6.2,WSW,8.1,-,N/A,Snow,Light Snow,250,2012-11-30 17:00:00
6:30 PM,28.4,28.4,100,29.74,6.2,WSW,6.9,-,N/A,Snow,Light Snow,240,2012-11-30 17:30:00
7:00 PM,28.4,28.4,100,29.74,6.2,WSW,6.9,-,N/A,Snow,Light Snow,250,2012-11-30 18:00:00
7:30 PM,28.4,28.4,100,29.77,6.2,WNW,5.8,-,N/A,Snow,Light Snow,290,2012-11-30 18:30:00
8:00 PM,28.4,28.4,100,29.77,6.2,West,4.6,-,N/A,,Mostly Cloudy,280,2012-11-30 19:00:00
9:00 PM,28.4,26.6,93,29.77,6.2,Variable,2.3,-,N/A,,Mostly Cloudy,0,2012-11-30 20:00:00
10:00 PM,28.4,26.6,93,29.80,6.2,West,4.6,-,N/A,,Mostly Cloudy,260,2012-11-30 21:00:00
11:00 PM,26.6,24.8,93,29.80,6.2,SW,3.5,-,N/A,,Mostly Cloudy,230,2012-11-30 22:00:00